Regional Weather Roundup
Issued by NWS Northern Indiana

Home | Current Version | Previous Version | Graphics & Text | Print | Product List | Glossary On
Versions: 1 2 3 4 5 6 7 8 9 10 11 12 13 14 15 16 17 18 19 20 21 22 23 24 25 26 27 28 29 30 31 32 33 34 35 36 37 38 39 40 41 42 43 44 45 46 47 48 49 50
000
ASUS43 KIWX 311710
RWRIWX

KIWX WEATHER ROUNDUP
NATIONAL WEATHER SERVICE NORTHERN INDIANA
1200 PM EST SAT JAN 31 2015

NOTE: "FAIR" INDICATES FEW OR NO CLOUDS BELOW 12,000 FEET WITH NO
SIGNIFICANT WEATHER AND/OR OBSTRUCTIONS TO VISIBILITY.

* THESE STATIONS ARE NOT UNDER NWS QUALITY CONTROL. THEY ALSO MAY NOT
  REPORT WEATHER SUCH AS PRECIPITATION OR FOG.

INZ001>027-311800-
NORTHERN INDIANA

CITY           SKY/WX    TMP DP  RH WIND       PRES   REMARKS
GARY*          PTSUNNY   36  19  51 S9        30.23F
VALPARAISO     MOSUNNY   34  23  64 SW14      30.24F WCI  25
MICHIGAN CITY* MOSUNNY   36  18  48 SW12      30.23F
LAPORTE*       SUNNY     35  26  68 SW10G17   30.24F WCI  27
KNOX*          SUNNY     34  10  37 SW12      30.24F WCI  25
SOUTH BEND     SUNNY     33  22  63 SW14      30.24F WCI  23
ELKHART*       PTSUNNY   32  19  59 SW8       30.25F WCI  25
GOSHEN         MOSUNNY   32  23  69 SW14      30.24F WCI  22
MONTICELLO*    MOSUNNY   33  24  70 SW12G20   30.28S WCI  24
LOGANSPORT*    SUNNY     34  25  69 SW10      30.29F WCI  26
ROCHESTER*     SUNNY     36  27  69 SW14      30.28F
WARSAW*        SUNNY     34  21  60 SW12      30.26F WCI  25
ANGOLA*        SUNNY     32  19  59 W10       30.23F WCI  24
FORT WAYNE     PTSUNNY   32  22  66 SW14      30.29F WCI  22
HUNTINGTON*    SUNNY     33  18  55 SW10      30.28F WCI  24
PERU/GRISSOM   SUNNY     34  25  68 SW15      30.28F WCI  24
MARION*        SUNNY     33  24  68 SW14      30.30F WCI  23

$$
INZ028>050-311800-
CENTRAL INDIANA

CITY           SKY/WX    TMP DP  RH WIND       PRES   REMARKS
LAFAYETTE      MOSUNNY   33  23  66 SW13      30.29F WCI  24
KOKOMO*        SUNNY     36  23  60 SW16      30.29F
MUNCIE*        SUNNY     33  22  63 SW12      30.30F WCI  24
INDIANAPOLIS   CLOUDY    32  21  64 SW10      30.33F WCI  24

$$
MIZ043>046-050>051-056>058-064>065-071>073-077>080-311800-
SOUTHWEST LOWER MICHIGAN

CITY           SKY/WX    TMP DP  RH WIND       PRES   REMARKS
BATTLE CREEK   CLOUDY    30  20  66 SW12      30.21F WCI  20
BENTON HARBOR  SUNNY     32  23  69 SW14      30.22F WCI  22
COLDWATER*     MOSUNNY   31  21  65 SW12      30.22F WCI  22
HILLSDALE*     SUNNY     30  19  63 SW9       30.21F WCI  22
HOLLAND        CLOUDY    31  25  78 S13       30.20F WCI  21
GRAND RAPIDS   CLOUDY    29  23  78 SW12      30.19F WCI  19
KALAMAZOO      CLOUDY    30  20  66 SW12      30.22F WCI  20
STURGIS*       PTSUNNY   30  21  69 SW8       30.23F WCI  23
THREE RIVERS*  PTSUNNY   32  20  62 SW8       30.23F WCI  25

$$
OHZ001>008-015>018-024>025-311800-
NORTHWEST OHIO

CITY           SKY/WX    TMP DP  RH WIND       PRES   REMARKS
WAUSEON*       FAIR      30  21  69 SW12      30.26F WCI  21
DEFIANCE       SUNNY     31  21  66 SW13      30.28F WCI  21
FINDLAY        SUNNY     29  19  66 SW12      30.28F WCI  19
TOLEDO EXPRESS SUNNY     30  19  63 SW13      30.26F WCI  20
TOLEDO METCALF SUNNY     29  18  63 SW14      30.29F WCI  18
LIMA           SUNNY     30  19  63 SW10      30.29F WCI  21

$$
AND FOR LAKE MICHIGAN COASTAL AND OPEN LAKE BUOY OBSERVATIONS

STATION/POSITION TEMP    WIND        PRES    VSBY  WAVE
                 AIR SEA DIR/SP/G                  HT/PER
                 (F)     (DEG/KT/KT) (MB)    (MI)  (FT/S)
CALUMET HARBOR    34     210/ 10/ 14   N/A
MICHIGAN CITY     33     190/ 12/ 14   N/A
SAINT JOSEPH      31     190/ 15/ 18 1023.7F

$$
&&



USA.gov is the U.S. government's official web portal to all federal, state and local government web resources and services.